Luverne, MN

5:10 AM CST on December 12, 2017 (GMT -0600)
Luverne

Weather History for KLYV - January, 2014

Change the Weather History Date:

Monday, January 13, 2014

  Actual Average (KPQN) Record (KPQN)
Temperature  
Mean Temperature 28 °F -  
Max Temperature 35 °F 21 °F 37 °F (2002)
Min Temperature 21 °F 5 °F -16 °F (1998)
Degree Days  
Heating Degree Days 37    
Moisture  
Dew Point 26 °F    
Average Humidity 81    
Maximum Humidity 87    
Minimum Humidity 74    
Precipitation  
Precipitation 0.00 in - - ()
Sea Level Pressure  
Sea Level Pressure 29.65 in    
Wind  
Wind Speed 12 mph (West)    
Max Wind Speed 24 mph    
Max Gust Speed 30 mph    
Visibility 10 miles    
Events Rain    
Averages and records for this station are not official NWS values.
T = Trace of Precipitation, MM = Missing Value Source: NWS Daily Summary

Daily Weather History Graph

Daily Weather History Graph

Search for Another Location

Airport or City:

Trip Planner

Search our weather history database for the weather conditions in past years. The results will help you decide how hot, cold, wet, or windy it might be!

Date:

Astronomy

Jan. 13, 2014 Rise Set
Actual Time 7:56 AM CST 5:11 PM CST
Civil Twilight 7:24 AM CST 5:43 PM CST
Nautical Twilight 6:48 AM CST 6:19 PM CST
Astronomical Twilight 6:14 AM CST 6:53 PM CST
Moon 3:28 PM CST (1/13) 5:45 AM CST (1/13)
Length of Visible Light 10h 19m
Length of Day
9h 15m
Waxing Gibbous, 95% of the Moon is Illuminated
Jan 13
Waxing Gibbous
Jan 15
Full
Jan 23
Last Quarter
Jan 30
New
Feb 6
First Quarter

Hourly Weather History & Observations

Time (CST) Temp. Windchill Dew Point Humidity Pressure Visibility Wind Dir Wind Speed Gust Speed Precip Events Conditions
12:15 AM 33.8 °F 25.8 °F 28.4 °F 81% 29.60 in 10.0 mi West 10.4 mph - N/A   Clear
12:35 AM 33.8 °F 24.8 °F 28.4 °F 81% 29.60 in 10.0 mi West 12.7 mph - N/A   Clear
12:54 AM 32.0 °F 22.1 °F 28.4 °F 87% 29.60 in 10.0 mi WNW 13.8 mph - N/A   Clear
1:15 AM 32.0 °F 21.6 °F 28.4 °F 87% 29.60 in 10.0 mi WNW 15.0 mph - N/A   Clear
1:35 AM 32.0 °F 21.2 °F 28.4 °F 87% 29.61 in 10.0 mi WNW 16.1 mph - N/A   Clear
1:54 AM 32.0 °F 20.8 °F 28.4 °F 87% 29.61 in 10.0 mi WNW 17.3 mph - N/A   Clear
2:15 AM 32.0 °F 20.8 °F 28.4 °F 87% 29.63 in 10.0 mi NW 17.3 mph - N/A   Clear
2:34 AM 32.0 °F 20.8 °F 28.4 °F 87% 29.64 in 10.0 mi NW 17.3 mph - N/A   Clear
2:55 AM 32.0 °F 20.5 °F 28.4 °F 87% 29.65 in 10.0 mi NW 18.4 mph - N/A   Clear
3:14 AM 32.0 °F 20.8 °F 28.4 °F 87% 29.66 in 10.0 mi NW 17.3 mph - N/A   Scattered Clouds
3:35 AM 32.0 °F 20.5 °F 28.4 °F 87% 29.66 in 10.0 mi NW 18.4 mph - N/A   Overcast
3:54 AM 32.0 °F 18.9 °F 26.6 °F 80% 29.67 in 10.0 mi NNW 24.2 mph 29.9 mph N/A   Mostly Cloudy
4:15 AM 30.2 °F 17.4 °F 23.0 °F 75% 29.68 in 10.0 mi NNW 20.7 mph 26.5 mph N/A   Clear
4:34 AM 30.2 °F 18.9 °F 23.0 °F 75% 29.69 in 10.0 mi NNW 16.1 mph 27.6 mph N/A   Clear
4:54 AM 30.2 °F 18.5 °F 23.0 °F 75% 29.70 in 10.0 mi NNW 17.3 mph 20.7 mph N/A   Clear
5:15 AM 28.4 °F 17.5 °F 21.2 °F 74% 29.71 in 10.0 mi NW 13.8 mph - N/A   Clear
5:34 AM 28.4 °F 21.2 °F 21.2 °F 74% 29.71 in 10.0 mi NW 6.9 mph - N/A   Clear
5:55 AM 26.6 °F 18.2 °F 21.2 °F 80% 29.72 in 10.0 mi NW 8.1 mph - N/A   Clear
6:14 AM 26.6 °F - 19.4 °F 74% 29.73 in 10.0 mi Calm Calm - N/A   Clear
6:34 AM 24.8 °F 17.9 °F 19.4 °F 80% 29.73 in 10.0 mi WNW 5.8 mph - N/A   Clear
6:55 AM 23.0 °F 15.8 °F 19.4 °F 86% 29.75 in 10.0 mi WNW 5.8 mph - N/A   Clear
7:14 AM 23.0 °F 14.7 °F 19.4 °F 86% 29.74 in 10.0 mi WNW 6.9 mph - N/A   Clear
7:35 AM 23.0 °F 13.1 °F 17.6 °F 80% 29.74 in 10.0 mi WNW 9.2 mph - N/A   Clear
7:55 AM 21.2 °F 8.9 °F 17.6 °F 86% 29.74 in 10.0 mi WNW 12.7 mph - N/A   Clear
8:14 AM 21.2 °F 8.9 °F 17.6 °F 86% 29.74 in 10.0 mi WNW 12.7 mph - N/A   Clear
8:35 AM 23.0 °F 12.4 °F 19.4 °F 86% 29.75 in 10.0 mi WNW 10.4 mph - N/A   Clear
8:55 AM 23.0 °F 11.7 °F 19.4 °F 86% 29.75 in 10.0 mi West 11.5 mph - N/A   Clear
9:14 AM 24.8 °F 12.9 °F 21.2 °F 86% 29.75 in 10.0 mi West 13.8 mph - N/A   Clear
9:35 AM 26.6 °F 15.2 °F 21.2 °F 80% 29.75 in 10.0 mi West 13.8 mph - N/A   Clear
9:55 AM 26.6 °F 14.7 °F 21.2 °F 80% 29.75 in 10.0 mi West 15.0 mph - N/A   Clear
10:14 AM 26.6 °F 15.2 °F 21.2 °F 80% 29.75 in 10.0 mi West 13.8 mph - N/A   Clear
10:35 AM 28.4 °F 18.0 °F 23.0 °F 80% 29.75 in 10.0 mi West 12.7 mph - N/A   Clear
10:55 AM 28.4 °F 19.1 °F 23.0 °F 80% 29.75 in 10.0 mi West 10.4 mph - N/A   Clear
11:14 AM 28.4 °F 19.1 °F 23.0 °F 80% 29.74 in 10.0 mi West 10.4 mph - N/A   Clear
11:35 AM 30.2 °F 21.3 °F 23.0 °F 75% 29.73 in 10.0 mi West 10.4 mph - N/A   Clear
11:55 AM 30.2 °F 21.9 °F 24.8 °F 80% 29.72 in 10.0 mi West 9.2 mph - N/A   Clear
12:14 PM 32.0 °F 23.6 °F 24.8 °F 75% 29.72 in 10.0 mi West 10.4 mph - N/A   Clear
12:35 PM 32.0 °F 24.8 °F 26.6 °F 80% 29.72 in 10.0 mi West 8.1 mph - N/A   Clear
12:55 PM 32.0 °F 24.8 °F 26.6 °F 80% 29.70 in 10.0 mi SW 8.1 mph - N/A   Clear
1:14 PM 32.0 °F 27.5 °F 26.6 °F 80% 29.69 in 10.0 mi SW 4.6 mph - N/A   Clear
1:35 PM 32.0 °F 25.6 °F 26.6 °F 80% 29.68 in 10.0 mi SW 6.9 mph - N/A   Clear
1:55 PM 33.8 °F 25.3 °F 26.6 °F 75% 29.66 in 10.0 mi SSW 11.5 mph - N/A   Clear
2:14 PM 33.8 °F 25.8 °F 28.4 °F 81% 29.66 in 10.0 mi SSW 10.4 mph - N/A   Scattered Clouds
2:35 PM 33.8 °F 26.4 °F 28.4 °F 81% 29.66 in 10.0 mi SW 9.2 mph - N/A   Overcast
2:55 PM 35.6 °F 28.0 °F 28.4 °F 75% 29.65 in 10.0 mi SSW 10.4 mph - N/A   Overcast
3:14 PM 33.8 °F 27.7 °F 28.4 °F 81% 29.65 in 10.0 mi SSW 6.9 mph - N/A   Scattered Clouds
3:35 PM 33.8 °F 29.6 °F 28.4 °F 81% 29.65 in 10.0 mi SSW 4.6 mph - N/A   Mostly Cloudy
3:55 PM 35.6 °F 29.9 °F 30.2 °F 81% 29.65 in 10.0 mi SSW 6.9 mph - N/A   Overcast
4:14 PM 35.6 °F 29.2 °F 28.4 °F 75% 29.64 in 10.0 mi SSW 8.1 mph - N/A   Overcast
4:35 PM 33.8 °F 25.8 °F 30.2 °F 87% 29.63 in 10.0 mi South 10.4 mph - N/A   Overcast
4:54 PM 33.8 °F 27.0 °F 28.4 °F 81% 29.62 in 10.0 mi SSW 8.1 mph - N/A   Scattered Clouds
5:14 PM 33.8 °F 26.4 °F 28.4 °F 81% 29.62 in 10.0 mi SSW 9.2 mph - N/A   Scattered Clouds
5:35 PM 33.8 °F 27.0 °F 28.4 °F 81% 29.61 in 10.0 mi SSW 8.1 mph - N/A   Mostly Cloudy
5:54 PM 32.0 °F 25.6 °F 26.6 °F 80% 29.60 in 10.0 mi SSW 6.9 mph - N/A   Scattered Clouds
6:15 PM 32.0 °F 26.4 °F 26.6 °F 80% 29.60 in 10.0 mi SW 5.8 mph - N/A   Clear
6:34 PM 32.0 °F 26.4 °F 26.6 °F 80% 29.59 in 10.0 mi SW 5.8 mph - N/A   Clear
6:54 PM 32.0 °F 26.4 °F 26.6 °F 80% 29.58 in 10.0 mi SW 5.8 mph - N/A   Clear
7:14 PM 32.0 °F 23.6 °F 26.6 °F 80% 29.57 in 10.0 mi SW 10.4 mph - N/A   Clear
7:34 PM 32.0 °F 24.2 °F 26.6 °F 80% 29.57 in 10.0 mi SW 9.2 mph - N/A   Clear
7:55 PM 30.2 °F 21.9 °F 24.8 °F 80% 29.56 in 10.0 mi SSW 9.2 mph - N/A   Clear
8:14 PM 30.2 °F 23.4 °F 26.6 °F 86% 29.55 in 10.0 mi South 6.9 mph - N/A   Clear
8:34 PM 30.2 °F 22.6 °F 24.8 °F 80% 29.55 in 10.0 mi SSW 8.1 mph - N/A   Clear
8:55 PM 30.2 °F 26.7 °F 24.8 °F 80% 29.53 in 10.0 mi SW 3.5 mph - N/A   Clear
9:14 PM 32.0 °F 24.8 °F 26.6 °F 80% 29.53 in 10.0 mi WSW 8.1 mph - N/A   Mostly Cloudy
9:34 PM 33.8 °F 24.8 °F 28.4 °F 81% 29.53 in 10.0 mi WSW 12.7 mph - N/A   Overcast
9:55 PM 35.6 °F 26.2 °F 30.2 °F 81% 29.51 in 10.0 mi WSW 15.0 mph - N/A   Overcast
10:14 PM 35.6 °F 26.2 °F 30.2 °F 81% 29.51 in 10.0 mi WSW 15.0 mph - N/A   Overcast
10:34 PM 35.6 °F 27.1 °F 32.0 °F 87% 29.51 in 10.0 mi WSW 12.7 mph - N/A   Overcast
10:55 PM 35.6 °F 27.1 °F 32.0 °F 87% 29.50 in 10.0 mi WSW 12.7 mph - N/A   Overcast
11:14 PM 35.6 °F 26.6 °F 32.0 °F 87% 29.50 in 10.0 mi WSW 13.8 mph - N/A Rain Light Rain
11:35 PM 35.6 °F 26.2 °F 32.0 °F 87% 29.49 in 10.0 mi WSW 15.0 mph - N/A   Overcast
11:55 PM 35.6 °F 25.5 °F 32.0 °F 87% 29.49 in 10.0 mi WSW 17.3 mph - N/A   Scattered Clouds